Location: Brno
(49.2000°N, 16.6333°E)
Time: 03:29:06
(UTC+01:00)

ISS - Pass Details

Date: 27 January 2019
Orbit: 403 x 411 km, 51.6° (Epoch: 17 February)

Event Time Altitude Azimuth Distance (km) Brightness Sun altitude
Rises 18:21:52 0° 249° (WSW) 2,329 1.7 -16.3°
Reaches altitude 10° 18:23:57 10° 249° (WSW) 1,472 0.3 -16.7°
Maximum altitude 18:27:15 88° 160° (SSE) 415 -3.9 -17.2°
Enters shadow 18:27:57 53° 72° (ENE) 512 -3.8 -17.3°
